Location: Doux
(49.5045°N, 4.4321°E)
Time: 03:54:39
(UTC+00:00)

Cosmos 1892 - Pass Details

Date: 23 May 2024
Orbit: 455 x 468 km, 82.5° (Epoch: 17 June)

Event Time Altitude Azimuth Distance (km) Brightness Sun altitude
Exits shadow 02:38:27 - 173° (S) 2,139 5.4 -9.4°
Reaches altitude 10° 02:39:46 10° 169° (S) 1,602 4.8 -9.2°
Maximum altitude 02:43:08 47° 95° (E) 620 3.4 -8.8°
Drops below altitude 10° 02:46:31 10° 21° (NNE) 1,610 6.4 -8.5°
Sets 02:48:38 0° 15° (NNE) 2,488 7.4 -8.2°
